Back to catalog

STARLINK-2635

AliveCommunicationsVLEO
NORAD 48355·PAYLOAD·🇺🇸 United States

Launched May 4, 2021 from Cape Canaveral Space Force Station

Loading…

Next Passes (next 24 hours)

TLE

FreshSource: CelesTrak SupGP

Epoch: Sep 14, 2026, 13:25 UTC

1 48355C 21038C   26257.55951389 -.00019189  00000+0 -61733-3 0  2575
2 48355  53.1608 199.1513 0001388  87.2386 216.6490 15.31697284    18

Track STARLINK-2635 in real time with AllMySat

Download on the App Store